449  
ASUS45 KGGW 160015  
RWRGGW  
HOURLY REGIONAL WEATHER ROUNDUP FOR NORTHEAST MONTANA  
NATIONAL WEATHER SERVICE GLASGOW MONTANA  
600 PM MDT SUN SEP 15 2019  
 
NOTE: "FAIR" INDICATES FEW OR NO CLOUDS BELOW 12,000 FEET WITH NO  
SIGNIFICANT WEATHER AND/OR S TO VISISBILITY.  
 
NORTHEAST MONTANA  
 
 
CITY SKY/WX TMP DP RH WIND PRES REMARKS
 
GLASGOW SUNNY 84 56 38 E13 29.69F  
6HR MIN TEMP: 74; 6HR MAX TEMP: 86;  
 
PLENTYWOOD N/A 84 52 33 S5G14 N/A  
WOLF POINT MOSUNNY 85 62 46 CALM 29.71F  
JORDAN N/A 90 43 19 SE10 29.72S  
WINNETT N/A 91 32 12 SE7G20 N/A  
SIDNEY SUNNY 86 64 47 CALM 29.74S  
GLENDIVE SUNNY 86 55 34 CALM 29.76F  
MALTA N/A 88 48 25 SE8 N/A  
 
FORT PECK REPORTS  
 
 
CITY SKY/WX TMP DP RH WIND PRES REMARKS
 
FORT PECK N/A 85 53 33 E6 N/A  
THE PINES N/A 86 46 24 E3 N/A  
 
SOUTHEAST MONTANA  
 
 
CITY SKY/WX TMP DP RH WIND PRES REMARKS
 
BILLINGS MOSUNNY 93 36 13 SW7 29.76F  
MILES CITY SUNNY 88 49 25 SE5 29.74F  
BAKER SUNNY 85 52 32 S6 29.81F  
LIVINGSTON MOSUNNY 87 25 10 SW28 29.80R  
 
CENTRAL MONTANA  
 
 
CITY SKY/WX TMP DP RH WIND PRES REMARKS
 
HAVRE MOSUNNY 84 40 21 SW7 29.64S  
LEWISTOWN SUNNY 85 36 17 SW12 29.76F  
GREAT FALLS CLOUDY 83 41 22 S3 29.69F  
CUT BANK PTSUNNY 82 35 18 W14 29.68F  
HELENA PTSUNNY 86 48 26 NE6 29.69F  
BUTTE SUNNY 84 23 10 S15G23 29.82F  
BOZEMAN PTSUNNY 86 28 12 SW16 29.79R  
 
WESTERN MONTANA  
 
 
CITY SKY/WX TMP DP RH WIND PRES REMARKS
 
MISSOULA SUNNY 84 45 25 W3 29.63F  
KALISPELL NOT AVBL  
 
NORTH DAKOTA  
 
 
CITY SKY/WX TMP DP RH WIND PRES REMARKS
 
WILLISTON SUNNY 85 67 54 NW3 29.73F  
DICKINSON CLEAR 84 52 33 SE9 29.78F  
MINOT CLEAR 84 57 39 SE8 29.76S  
BISMARCK CLEAR 80 63 55 SE8 29.80S  
 
SOUTHERN SASKATCHEWAN  
 
 
CITY SKY/WX TMP DP RH WIND PRES REMARKS
 
REGINA MOSUNNY 79 55 44 SE9 29.71F  
ESTEVAN CLEAR 82 57 42 SE5 29.75S  
SWIFT CURRENT SUNNY 82 50 32 S14G20 29.68S  
 
 
 
CLICK HERE TO GO TO PREVIOUS BULLETINS.

The Nexlab MT Page Main Text Page